Location: Asheville, NC
(35.6000°N, 82.5500°W)
Time: 02:38:48
(UTC-05:00)

Vanguard 1 Rocket - Pass Details

Date: 17 February 2018
Orbit: 655 x 4222 km, 34.3° (Epoch: 18 February)

Event Time Altitude Azimuth Distance (km) Brightness Sun altitude
Rises 01:38:52 0° 258° (WSW) 7,587 - -63.3°
Reaches altitude 10° 01:43:28 10° 258° (WSW) 6,864 - -62.8°
Maximum altitude 02:09:17 86° 174° (S) 4,164 - -59.5°
Exits shadow 02:14:51 67° 95° (E) 4,221 10.4 -58.7°
Drops below altitude 10° 02:31:28 10° 89° (E) 6,066 11.8 -56.2°
Sets 02:35:14 0° 89° (E) 6,723 12.2 -55.5°
